When you browse on this site, cookies collect data to enhance your experience and personalize the content and advertising you see.
Visit our Privacy Policy to learn more. By continuing to use the site, you agree to this use of cookies and data.
  • In Denmark
  • List of Countries
  • For 7 days
  • Water Temperature
  • Satellite Maps
  • Weather Map
  • Weather Widgets
  • user-avatar
    Login

    Hourly Weather Medvedevo

    Today, 18 January, Friday

    Time Temperature Precipitation Wind Pressure Humidity
    00:00 -5°C° 0.1 mm 8 mps 739 mmHg 86%
    01:00 -5°C° 0.1 mm 8 mps 739 mmHg 86%
    02:00 -5°C° 0.1 mm 8 mps 739 mmHg 86%
    03:00 -5°C° 0 mm 8 mps 738 mmHg 86%
    04:00 -5°C° 0 mm 8 mps 739 mmHg 86%
    05:00 -3°C° 0 mm 7 mps 739 mmHg 86%
    06:00 -3°C° 0 mm 7 mps 739 mmHg 87%
    07:00 -3°C° 0 mm 7 mps 740 mmHg 87%
    08:00 -2°C° 0 mm 6 mps 740 mmHg 88%
    09:00 -2°C° 0 mm 6 mps 740 mmHg 88%
    10:00 -2°C° 0 mm 6 mps 741 mmHg 89%
    11:00 -2°C° 0 mm 6 mps 741 mmHg 90%
    12:00 -2°C° 0 mm 6 mps 742 mmHg 91%
    13:00 -1°C° 0.1 mm 5 mps 742 mmHg 91%
    14:00 -1°C° 0.1 mm 5 mps 742 mmHg 91%
    15:00 -1°C° 0.1 mm 5 mps 742 mmHg 92%
    16:00 -1°C° 0 mm 4 mps 742 mmHg 92%
    17:00 -2°C° 0 mm 4 mps 742 mmHg 92%
    18:00 -2°C° 0 mm 4 mps 742 mmHg 92%
    19:00 -2°C° 0.4 mm 5 mps 741 mmHg 91%
    20:00 -1°C° 0.4 mm 5 mps 741 mmHg 91%
    21:00 -2°C° 0.4 mm 6 mps 740 mmHg 91%
    22:00 -2°C° 0.7 mm 6 mps 740 mmHg 91%
    23:00 -2°C° 0.7 mm 7 mps 740 mmHg 91%

    Tomorrow, 19 January, Saturday

    Time Temperature Precipitation Wind Pressure Humidity
    00:00 -2°C° 0.7 mm 7 mps 739 mmHg 90%
    01:00 -2°C° 0.1 mm 6 mps 739 mmHg 89%
    02:00 -2°C° 0.1 mm 6 mps 740 mmHg 87%
    03:00 -2°C° 0.1 mm 6 mps 740 mmHg 85%
    04:00 -3°C° 0.1 mm 6 mps 741 mmHg 87%
    05:00 -3°C° 0.1 mm 6 mps 741 mmHg 88%
    06:00 -4°C° 0.1 mm 5 mps 742 mmHg 89%
    07:00 -6°C° 0 mm 5 mps 743 mmHg 90%
    08:00 -9°C° 0 mm 4 mps 743 mmHg 90%
    09:00 -10°C° 0 mm 3 mps 744 mmHg 91%
    10:00 -10°C° 0 mm 3 mps 745 mmHg 91%
    11:00 -10°C° 0 mm 3 mps 745 mmHg 90%
    12:00 -9°C° 0 mm 3 mps 746 mmHg 90%
    13:00 -10°C° 0 mm 4 mps 746 mmHg 90%
    14:00 -10°C° 0 mm 4 mps 746 mmHg 90%
    15:00 -10°C° 0 mm 4 mps 746 mmHg 91%
    16:00 -10°C° 0 mm 4 mps 746 mmHg 90%
    17:00 -10°C° 0 mm 4 mps 747 mmHg 89%
    18:00 -10°C° 0 mm 4 mps 747 mmHg 88%
    19:00 -10°C° 0 mm 4 mps 747 mmHg 88%
    20:00 -10°C° 0 mm 4 mps 747 mmHg 89%
    21:00 -10°C° 0 mm 4 mps 748 mmHg 89%
    22:00 -10°C° 0 mm 4 mps 748 mmHg 89%
    23:00 -10°C° 0 mm 4 mps 748 mmHg 90%

    Day after tomorrow, 20 January, Sunday

    Time Temperature Precipitation Wind Pressure Humidity
    00:00 -11°C° 0 mm 4 mps 749 mmHg 90%
    01:00 -11°C° 0 mm 4 mps 749 mmHg 91%
    02:00 -11°C° 0 mm 4 mps 749 mmHg 91%
    03:00 -11°C° 0 mm 4 mps 750 mmHg 92%
    04:00 -12°C° 0 mm 3 mps 750 mmHg 93%
    05:00 -12°C° 0 mm 3 mps 750 mmHg 93%
    06:00 -12°C° 0 mm 3 mps 750 mmHg 94%
    07:00 -13°C° 0 mm 3 mps 750 mmHg 94%
    08:00 -13°C° 0 mm 3 mps 750 mmHg 94%
    09:00 -14°C° 0 mm 4 mps 750 mmHg 94%
    10:00 -12°C° 0 mm 4 mps 750 mmHg 93%
    11:00 -11°C° 0 mm 4 mps 750 mmHg 92%
    12:00 -11°C° 0 mm 5 mps 749 mmHg 91%
    13:00 -10°C° 0 mm 5 mps 749 mmHg 90%
    14:00 -9°C° 0 mm 6 mps 749 mmHg 88%
    15:00 -8°C° 0 mm 6 mps 748 mmHg 87%
    16:00 -8°C° 0 mm 6 mps 748 mmHg 87%
    17:00 -9°C° 0 mm 6 mps 748 mmHg 87%
    18:00 -9°C° 0 mm 6 mps 748 mmHg 87%
    19:00 -10°C° 0 mm 6 mps 748 mmHg 87%
    20:00 -10°C° 0 mm 5 mps 747 mmHg 87%
    21:00 -11°C° 0 mm 5 mps 747 mmHg 87%
    22:00 -12°C° 0 mm 5 mps 747 mmHg 86%
    23:00 -12°C° 0 mm 5 mps 747 mmHg 85%

    21 January, Monday

    Time Temperature Precipitation Wind Pressure Humidity
    00:00 -13°C° 0 mm 5 mps 747 mmHg 84%
    01:00 -13°C° 0 mm 5 mps 747 mmHg 84%
    02:00 -13°C° 0 mm 5 mps 746 mmHg 85%
    03:00 -13°C° 0 mm 5 mps 746 mmHg 86%
    04:00 -14°C° 0 mm 5 mps 746 mmHg 88%
    05:00 -14°C° 0 mm 4 mps 745 mmHg 90%
    06:00 -15°C° 0 mm 4 mps 745 mmHg 91%
    07:00 -14°C° 0.1 mm 4 mps 745 mmHg 91%
    08:00 -12°C° 0.1 mm 4 mps 745 mmHg 92%
    09:00 -12°C° 0.1 mm 3 mps 745 mmHg 92%
    10:00 -12°C° 0.1 mm 3 mps 745 mmHg 92%
    11:00 -10°C° 0.1 mm 3 mps 745 mmHg 92%
    12:00 -10°C° 0.1 mm 3 mps 745 mmHg 91%
    13:00 -10°C° 0 mm 3 mps 745 mmHg 90%
    14:00 -11°C° 0 mm 4 mps 745 mmHg 88%
    15:00 -11°C° 0 mm 4 mps 745 mmHg 87%
    16:00 -14°C° 0 mm 4 mps 745 mmHg 89%
    17:00 -15°C° 0 mm 4 mps 745 mmHg 91%
    18:00 -16°C° 0 mm 4 mps 745 mmHg 93%
    19:00 -17°C° 0 mm 4 mps 746 mmHg 93%
    20:00 -18°C° 0 mm 4 mps 746 mmHg 93%
    21:00 -18°C° 0 mm 4 mps 746 mmHg 93%
    22:00 -18°C° 0 mm 3 mps 747 mmHg 94%
    23:00 -19°C° 0 mm 3 mps 747 mmHg 94%

    22 January, Tuesday

    Time Temperature Precipitation Wind Pressure Humidity
    00:00 -19°C° 0 mm 3 mps 747 mmHg 95%
    01:00 -19°C° 0 mm 3 mps 748 mmHg 95%
    02:00 -21°C° 0 mm 3 mps 748 mmHg 95%
    03:00 -21°C° 0 mm 3 mps 748 mmHg 95%
    04:00 -21°C° 0 mm 3 mps 749 mmHg 95%
    05:00 -21°C° 0 mm 3 mps 749 mmHg 95%
    06:00 -21°C° 0 mm 3 mps 749 mmHg 95%
    07:00 -22°C° 0 mm 3 mps 750 mmHg 96%
    08:00 -22°C° 0 mm 3 mps 750 mmHg 96%
    09:00 -22°C° 0 mm 3 mps 750 mmHg 96%
    10:00 -22°C° 0 mm 3 mps 751 mmHg 95%
    11:00 -21°C° 0 mm 3 mps 751 mmHg 94%
    12:00 -20°C° 0 mm 4 mps 751 mmHg 93%
    13:00 -18°C° 0 mm 3 mps 751 mmHg 93%
    14:00 -18°C° 0 mm 3 mps 751 mmHg 93%
    15:00 -17°C° 0 mm 3 mps 751 mmHg 93%
    16:00 -17°C° 0 mm 2 mps 751 mmHg 94%
    17:00 -18°C° 0 mm 2 mps 752 mmHg 95%
    18:00 -20°C° 0 mm 2 mps 752 mmHg 96%
    19:00 -19°C° 0 mm 2 mps 752 mmHg 97%
    20:00 -19°C° 0 mm 2 mps 752 mmHg 97%
    21:00 -19°C° 0 mm 2 mps 752 mmHg 97%
    22:00 -16°C° 0.1 mm 1 mps 752 mmHg 97%
    23:00 -15°C° 0.1 mm 1 mps 752 mmHg 97%

    23 January, Wednesday

    Time Temperature Precipitation Wind Pressure Humidity
    00:00 -13°C° 0.1 mm 1 mps 752 mmHg 97%
    01:00 -13°C° 0.1 mm 1 mps 752 mmHg 97%
    02:00 -13°C° 0.1 mm 1 mps 752 mmHg 97%
    03:00 -13°C° 0.1 mm 1 mps 752 mmHg 97%
    04:00 -14°C° 0 mm 1 mps 752 mmHg 97%
    05:00 -14°C° 0 mm 1 mps 752 mmHg 97%
    06:00 -15°C° 0 mm 1 mps 752 mmHg 98%
    07:00 -16°C° 0 mm 1 mps 753 mmHg 97%
    08:00 -16°C° 0 mm 1 mps 753 mmHg 97%
    09:00 -17°C° 0 mm 1 mps 754 mmHg 97%
    10:00 -15°C° 0 mm 1 mps 754 mmHg 96%
    11:00 -14°C° 0 mm 1 mps 754 mmHg 95%
    12:00 -12°C° 0 mm 0 mps 755 mmHg 93%
    13:00 -11°C° 0 mm 1 mps 755 mmHg 93%
    14:00 -11°C° 0 mm 1 mps 755 mmHg 93%
    15:00 -12°C° 0 mm 2 mps 755 mmHg 94%
    16:00 -13°C° 0 mm 2 mps 756 mmHg 94%
    17:00 -13°C° 0 mm 2 mps 756 mmHg 95%
    18:00 -13°C° 0 mm 2 mps 756 mmHg 95%
    19:00 -15°C° 0 mm 2 mps 756 mmHg 94%
    20:00 -16°C° 0 mm 2 mps 757 mmHg 93%
    21:00 -17°C° 0 mm 2 mps 757 mmHg 92%
    22:00 -18°C° 0 mm 2 mps 757 mmHg 92%
    23:00 -18°C° 0 mm 2 mps 757 mmHg 92%
    Show more